Regional Weather Roundup
Issued by NWS Goodland, KS

Home | Current Version | Previous Version | Graphics & Text | Print | Product List | Glossary On
Versions: 1 2 3 4 5 6 7 8 9 10 11 12 13 14 15 16 17 18 19 20 21 22 23 24 25 26 27 28 29 30 31 32 33 34 35 36 37 38 39 40 41 42 43 44 45 46 47 48 49 50
268
ASUS43 KGLD 181508
RWRGLD

GOODLAND FORECAST AREA HOURLY WEATHER ROUNDUP
NATIONAL WEATHER SERVICE GOODLAND KS
900 AM MDT WED OCT 18 2017

...OFFICIAL OBSERVATIONS...

CITY           SKY/WX    TMP DP  RH WIND       PRES   REMARKS
GOODLAND KS    CLOUDY    57  36  45 W8        30.04R
HILL CITY KS   MOSUNNY   52  43  71 W5        29.98S
IMPERIAL NEB   CLOUDY    58  28  32 NW6       30.01R
MCCOOK NEB     MOSUNNY   52  36  54 W17       29.96R
AKRON CO       CLOUDY    54  24  31 W13       30.10R
BURLINGTON CO  CLOUDY    61  33  35 W8        30.09R
LIMON CO       CLOUDY    44  34  67 NW5       30.16R
$$

...UNOFFICIAL OBSERVATIONS...

CITY           SKY/WX    TMP DP  RH WIND       PRES   REMARKS
LENORA KS        N/A     54  32  43 MISG        N/A
NORTON KS      SUNNY     55  39  54 SW5       29.95R
TRENTON NEB      N/A     54  32  43 CALM        N/A
KIT CARSON CO    N/A     49  37  62 CALM        N/A
YUMA CO        FAIR      52  30  43 W8        30.07R
$$




USA.gov is the U.S. government's official web portal to all federal, state and local government web resources and services.